Time,TemperatureF,DewpointF,PressureIn,WindDirection,WindDirectionDegrees,WindSpeedMPH,WindSpeedGustMPH,Humidity,HourlyPrecipIn,Conditions,Clouds,dailyrainin,SoftwareType,DateUTC
2013-03-05 00:00:00,48.4,10.3,25.72,SW,221,0.0,4.9,21,0.00,,---,0.00,VWS V13.01,2013-03-05 07:00:00,
2013-03-05 00:20:00,47.8,10.9,25.72,SW,220,3.1,4.9,22,0.00,,---,0.00,VWS V13.01,2013-03-05 07:20:00,
2013-03-05 00:40:00,47.3,10.4,25.72,SW,218,3.6,4.9,22,0.00,,---,0.00,VWS V13.01,2013-03-05 07:40:00,
2013-03-05 01:00:00,46.8,9.9,25.72,SW,227,2.7,5.4,22,0.00,,---,0.00,VWS V13.01,2013-03-05 08:00:00,
2013-03-05 01:20:00,46.2,12.4,25.72,SW,221,3.1,4.5,25,0.00,,---,0.00,VWS V13.01,2013-03-05 08:20:00,
2013-03-05 01:40:00,45.9,13.8,25.72,SW,226,2.7,5.8,27,0.00,,---,0.00,VWS V13.01,2013-03-05 08:40:00,
2013-03-05 02:00:00,45.7,14.5,25.72,SW,226,3.1,4.9,28,0.00,,---,0.00,VWS V13.01,2013-03-05 09:00:00,
2013-03-05 02:20:00,45.7,14.5,25.72,SW,221,4.0,5.8,28,0.00,,---,0.00,VWS V13.01,2013-03-05 09:20:00,
2013-03-05 02:40:00,45.7,14.5,25.72,SW,233,4.0,5.4,28,0.00,,---,0.00,VWS V13.01,2013-03-05 09:40:00,
2013-03-05 03:00:00,45.5,14.3,25.72,SW,228,2.7,4.9,28,0.00,,---,0.00,VWS V13.01,2013-03-05 10:00:00,
2013-03-05 03:20:00,45.5,15.1,25.72,SW,222,4.0,5.4,29,0.00,,---,0.00,VWS V13.01,2013-03-05 10:20:00,
2013-03-05 03:40:00,45.1,14.8,25.69,SW,223,3.1,5.4,29,0.00,,---,0.00,VWS V13.01,2013-03-05 10:40:00,
2013-03-05 04:00:00,45.0,14.6,25.69,SW,221,3.6,4.5,29,0.00,,---,0.00,VWS V13.01,2013-03-05 11:00:00,
2013-03-05 04:20:00,45.0,15.4,25.72,SW,226,3.1,4.5,30,0.00,,---,0.00,VWS V13.01,2013-03-05 11:20:00,
2013-03-05 04:40:00,44.6,15.1,25.72,SW,225,3.6,3.6,30,0.00,,---,0.00,VWS V13.01,2013-03-05 11:40:00,
2013-03-05 05:00:00,44.4,15.7,25.72,SW,225,2.2,4.0,31,0.00,,---,0.00,VWS V13.01,2013-03-05 12:00:00,
2013-03-05 05:20:00,44.1,15.4,25.72,SW,225,3.1,3.1,31,0.00,,---,0.00,VWS V13.01,2013-03-05 12:20:00,
2013-03-05 05:40:00,43.7,15.8,25.72,SW,225,0.0,3.6,32,0.00,,---,0.00,VWS V13.01,2013-03-05 12:40:00,
2013-03-05 06:00:00,43.5,15.6,25.72,SW,225,0.0,0.0,32,0.00,,---,0.00,VWS V13.01,2013-03-05 13:00:00,
2013-03-05 06:20:00,43.7,15.1,25.72,SW,225,0.0,0.0,31,0.00,,---,0.00,VWS V13.01,2013-03-05 13:20:00,
2013-03-05 06:40:00,43.7,15.1,25.72,SW,225,0.0,0.0,31,0.00,,---,0.00,VWS V13.01,2013-03-05 13:40:00,
2013-03-05 07:00:00,43.7,15.1,25.72,SE,145,0.0,4.0,31,0.00,,---,0.00,VWS V13.01,2013-03-05 14:00:00,
2013-03-05 07:20:00,44.2,15.5,25.75,SE,145,0.0,0.0,31,0.00,,---,0.00,VWS V13.01,2013-03-05 14:20:00,
2013-03-05 07:40:00,45.5,15.9,25.72,SE,145,0.0,0.0,30,0.00,,---,0.00,VWS V13.01,2013-03-05 14:40:00,
2013-03-05 08:00:00,49.1,17.4,25.75,SE,146,0.0,0.0,28,0.00,,---,0.00,VWS V13.01,2013-03-05 15:00:00,
2013-03-05 08:20:00,53.2,19.3,25.75,SE,141,6.3,8.7,26,0.00,,---,0.00,VWS V13.01,2013-03-05 15:20:00,
2013-03-05 08:40:00,55.8,20.5,25.75,SE,141,5.8,8.3,25,0.00,,---,0.00,VWS V13.01,2013-03-05 15:40:00,
2013-03-05 09:00:00,57.4,18.9,25.75,SE,146,3.6,10.5,22,0.00,,---,0.00,VWS V13.01,2013-03-05 16:00:00,
2013-03-05 09:20:00,58.8,20.1,25.75,SSE,152,5.4,10.5,22,0.00,,---,0.00,VWS V13.01,2013-03-05 16:20:00,
2013-03-05 09:40:00,60.1,21.1,25.75,SSE,149,8.7,11.0,22,0.00,,---,0.00,VWS V13.01,2013-03-05 16:40:00,
2013-03-05 10:00:00,61.2,18.6,25.75,SSE,151,5.8,13.2,19,0.00,,---,0.00,VWS V13.01,2013-03-05 17:00:00,
2013-03-05 10:20:00,62.1,19.3,25.75,SE,128,15.0,15.0,19,0.00,,---,0.00,VWS V13.01,2013-03-05 17:20:00,
2013-03-05 10:40:00,63.5,19.3,25.75,SSE,148,7.6,15.0,18,0.00,,---,0.00,VWS V13.01,2013-03-05 17:40:00,
2013-03-05 11:00:00,64.2,19.9,25.75,SE,129,16.3,17.9,18,0.00,,---,0.00,VWS V13.01,2013-03-05 18:00:00,
2013-03-05 11:20:00,64.8,20.3,25.75,SE,139,12.8,17.4,18,0.00,,---,0.00,VWS V13.01,2013-03-05 18:20:00,
2013-03-05 11:40:00,66.0,21.3,25.75,SSE,158,3.6,18.8,18,0.00,,---,0.00,VWS V13.01,2013-03-05 18:40:00,
2013-03-05 12:00:00,67.5,21.2,25.72,South,170,5.4,17.4,17,0.00,,---,0.00,VWS V13.01,2013-03-05 19:00:00,
2013-03-05 12:20:00,68.5,22.0,25.72,SE,138,18.3,18.3,17,0.00,,---,0.00,VWS V13.01,2013-03-05 19:20:00,
2013-03-05 12:40:00,70.2,23.4,25.72,SE,129,13.2,18.3,17,0.00,,---,0.00,VWS V13.01,2013-03-05 19:40:00,
2013-03-05 13:00:00,70.9,23.9,25.69,East,86,4.9,21.5,17,0.00,,---,0.00,VWS V13.01,2013-03-05 20:00:00,
2013-03-05 13:20:00,71.4,24.4,25.69,SE,138,12.8,15.0,17,0.00,,---,0.00,VWS V13.01,2013-03-05 20:20:00,
2013-03-05 13:40:00,72.3,23.6,25.69,SSE,154,11.0,15.4,16,0.00,,---,0.00,VWS V13.01,2013-03-05 20:40:00,
2013-03-05 14:00:00,73.4,24.5,25.66,SSE,168,4.0,15.9,16,0.00,,---,0.00,VWS V13.01,2013-03-05 21:00:00,
2013-03-05 14:20:00,74.1,25.1,25.66,SE,133,15.0,17.4,16,0.00,,---,0.00,VWS V13.01,2013-03-05 21:20:00,
2013-03-05 14:40:00,72.3,23.6,25.66,SSE,152,6.3,17.9,16,0.00,,---,0.00,VWS V13.01,2013-03-05 21:40:00,
2013-03-05 15:00:00,71.2,24.2,25.66,South,175,3.1,15.0,17,0.00,,---,0.00,VWS V13.01,2013-03-05 22:00:00,
2013-03-05 15:20:00,72.0,23.4,25.66,SE,144,2.2,15.0,16,0.00,,---,0.00,VWS V13.01,2013-03-05 22:20:00,
2013-03-05 15:40:00,72.9,24.1,25.66,SSE,164,6.3,8.1,16,0.00,,---,0.00,VWS V13.01,2013-03-05 22:40:00,
2013-03-05 16:00:00,73.4,24.5,25.66,SSE,160,5.4,6.3,16,0.00,,---,0.00,VWS V13.01,2013-03-05 23:00:00,
2013-03-05 16:20:00,71.8,23.2,25.66,SSW,204,3.1,8.7,16,0.00,,---,0.00,VWS V13.01,2013-03-05 23:20:00,
2013-03-05 16:40:00,70.9,23.9,25.66,SW,224,6.3,8.1,17,0.00,,---,0.00,VWS V13.01,2013-03-05 23:40:00,
2013-03-05 17:00:00,70.3,23.5,25.66,SW,231,5.4,8.7,17,0.00,,---,0.00,VWS V13.01,2013-03-06 00:00:00,
2013-03-05 17:20:00,69.1,22.5,25.66,SW,216,3.1,9.6,17,0.00,,---,0.00,VWS V13.01,2013-03-06 00:20:00,
2013-03-05 17:40:00,68.0,21.6,25.66,SW,232,5.4,8.1,17,0.00,,---,0.00,VWS V13.01,2013-03-06 00:40:00,
2013-03-05 18:00:00,67.5,21.2,25.66,SW,229,3.6,6.3,17,0.00,,---,0.00,VWS V13.01,2013-03-06 01:00:00,
2013-03-05 18:20:00,66.6,20.4,25.66,SW,231,4.5,7.6,17,0.00,,---,0.00,VWS V13.01,2013-03-06 01:20:00,
2013-03-05 18:40:00,65.7,21.0,25.69,SW,221,3.6,6.3,18,0.00,,---,0.00,VWS V13.01,2013-03-06 01:40:00,
2013-03-05 19:00:00,65.1,20.6,25.66,SSW,203,7.2,8.7,18,0.00,,---,0.00,VWS V13.01,2013-03-06 02:00:00,
2013-03-05 19:20:00,64.8,20.3,25.69,SW,235,3.6,10.1,18,0.00,,---,0.00,VWS V13.01,2013-03-06 02:20:00,
2013-03-05 19:40:00,64.4,20.0,25.69,SSW,213,3.1,8.3,18,0.00,,---,0.00,VWS V13.01,2013-03-06 02:40:00,
2013-03-05 20:00:00,64.0,19.7,25.66,SE,132,3.6,7.6,18,0.00,,---,0.00,VWS V13.01,2013-03-06 03:00:00,
2013-03-05 20:20:00,64.0,19.7,25.66,SE,132,5.4,8.3,18,0.00,,---,0.00,VWS V13.01,2013-03-06 03:20:00,
2013-03-05 20:40:00,63.5,19.3,25.66,SE,146,3.6,8.3,18,0.00,,---,0.00,VWS V13.01,2013-03-06 03:40:00,
2013-03-05 21:00:00,63.1,19.0,25.66,SE,131,0.0,5.8,18,0.00,,---,0.00,VWS V13.01,2013-03-06 04:00:00,
2013-03-05 21:20:00,62.8,18.7,25.69,SE,129,0.0,3.1,18,0.00,,---,0.00,VWS V13.01,2013-03-06 04:20:00,
2013-03-05 21:40:00,61.9,19.2,25.69,WNW,302,5.4,6.3,19,0.00,,---,0.00,VWS V13.01,2013-03-06 04:40:00,
2013-03-05 22:00:00,61.2,18.6,25.69,WNW,297,2.7,6.3,19,0.00,,---,0.00,VWS V13.01,2013-03-06 05:00:00,
2013-03-05 22:20:00,60.3,17.9,25.69,SSE,158,3.6,4.0,19,0.00,,---,0.00,VWS V13.01,2013-03-06 05:20:00,
2013-03-05 22:40:00,61.0,18.5,25.69,NE,47,0.0,4.5,19,0.00,,---,0.00,VWS V13.01,2013-03-06 05:40:00,
2013-03-05 23:00:00,61.0,18.5,25.69,NE,49,2.2,5.8,19,0.00,,---,0.00,VWS V13.01,2013-03-06 06:00:00,
2013-03-05 23:20:00,60.4,18.0,25.69,NNE,32,0.0,5.4,19,0.00,,---,0.00,VWS V13.01,2013-03-06 06:20:00,
2013-03-05 23:40:00,59.4,17.1,25.69,NNE,29,0.0,0.0,19,0.00,,---,0.00,VWS V13.01,2013-03-06 06:40:00,